Regional Weather Roundup
Issued by NWS Boston, MA

Current Version | Previous Version | Text Only | Print | Product List | Glossary Off
Versions: 1 2 3 4 5 6 7 8 9 10 11 12 13 14 15 16 17 18 19 20 21 22 23 24 25 26 27
000 ASUS41 KBOX 232310 RWRBOX REGIONAL WEATHER ROUNDUP NATIONAL WEATHER SERVICE BOSTON/NORTON MA 700 PM EDT SAT JUN 23 2018 NOTE: "FAIR" INDICATES FEW OR NO CLOUDS BELOW 12,000 FEET WITH NO SIGNIFICANT WEATHER AND/OR OBSTRUCTIONS TO VISIBILITY. MAZALL-240000- EASTERN MASSACHUSETTS CITY SKY/WX TMP DP RH WIND PRES REMARKS BOSTON DRIZZLE 60 57 89 NE9 29.85S FOG BEVERLY LGT RAIN 59 58 96 N6 29.85R FOG LAWRENCE CLOUDY 62 54 74 N5 29.88R BEDFORD CLOUDY 59 57 93 NE5 29.84F FOG BLUE HILL N/A 56 56 100 NE10 29.83F NORWOOD CLOUDY 61 58 90 NE7 29.83F FOG MARSHFIELD FOG 61 61 100 VRB3 29.83S VSB 3/4 PLYMOUTH CLOUDY 61 60 97 NE7 29.82F FOG TAUNTON CLOUDY 61 59 93 CALM 29.82S FOG NEW BEDFORD CLOUDY 62 62 100 N3 29.80F FOG $$ MAZALL-240000- CAPE COD AND THE ISLANDS CITY SKY/WX TMP DP RH WIND PRES REMARKS FALMOUTH FOG 63 63 100 N5 29.81F VSB 1 HYANNIS CLOUDY 64 63 96 CALM 29.79S FOG CHATHAM FOG 61 60 97 CALM 29.81S VSB 1/2 PROVINCETOWN LGT RAIN 60 60 100 E8 29.82F VSB 1/2 NANTUCKET CLOUDY 61 60 97 S7 29.80R FOG MARTHAS VNYRD FOG 63 63 100 NE3 29.81R VSB 1/4 $$ MAZALL-240000- CENTRAL AND WESTERN MASSACHUSETTS CITY SKY/WX TMP DP RH WIND PRES REMARKS WORCESTER FOG 56 56 100 NE6 29.85F VSB 1/4 FITCHBURG CLOUDY 56 56 100 N6 29.87F FOG ORANGE CLOUDY 56 55 97 N6 29.87S FOG SPRINGFIELD LGT RAIN 59 57 93 NE10 29.83F WESTFIELD CLOUDY 58 58 100 N7 29.84F FOG NORTH ADAMS CLOUDY 58 53 84 E12 29.85S PITTSFIELD CLOUDY 57 52 83 NE6 29.84S $$ RIZALL-240000- RHODE ISLAND CITY SKY/WX TMP DP RH WIND PRES REMARKS PROVIDENCE CLOUDY 61 58 90 NE8 29.83F NEWPORT CLOUDY 61 60 97 N10 29.81S FOG BLOCK ISLAND FOG 63 63 100 NE7 29.82S VSB 3/4 SMITHFIELD CLOUDY 58 56 93 N8 29.84S WESTERLY CLOUDY 65 63 93 NE7 29.82R $$ CTZALL-240000- CONNECTICUT CITY SKY/WX TMP DP RH WIND PRES REMARKS BRADLEY INTL CLOUDY 60 58 92 N8 29.83S FOG HARTFORD CLOUDY 62 59 90 N8 29.82S BRIDGEPORT CLOUDY 64 61 90 N5 29.82S FOG DANBURY CLOUDY 61 59 93 NE3 29.84S FOG GROTON CLOUDY 65 62 90 NE3 29.81R FOG NEW HAVEN CLOUDY 64 62 93 N7 29.82R FOG CHESTER FOG 64 63 94 NE3 29.83R VSB 3/4 MERIDEN CLOUDY 63 59 87 N6 29.83R WILLIMANTIC CLOUDY 63 59 87 N7 29.84R OXFORD CLOUDY 60 58 92 NE3 29.85R $$ MEZ002-015-021-024-NHZ003-005-008-011-012-014-VTZ005-008-240000- NORTHERN NEW ENGLAND CITY SKY/WX TMP DP RH WIND PRES REMARKS PORTLAND ME CLOUDY 57 54 89 VRB5 29.87F BANGOR ME LGT RAIN 61 53 75 SW6 29.89S CONCORD NH CLOUDY 56 53 90 NE5 29.88F MANCHESTER NH LGT RAIN 59 53 80 NE6 29.85F NASHUA NH LGT RAIN 58 55 90 NE6 29.87S FOG PORTSMOUTH NH CLOUDY 59 53 81 N8 29.86 JAFFREY NH CLOUDY 56 54 93 CALM 29.88S KEENE NH CLOUDY 57 54 89 NE3 29.87F BURLINGTON VT CLOUDY 63 55 75 S9 29.81F MT. WASHINGTON RAIN 48 48 100 SW18 N/A VSB 1/16 $$ NYZ052-076-240000- EASTERN NEW YORK CITY SKY/WX TMP DP RH WIND PRES REMARKS ALBANY CLOUDY 61 55 81 E3 29.83F NEW YORK CITY CLOUDY 65 60 84 NE7 29.81F $$ ANZALL-240000- MARINE OBSERVATIONS STATION/POSITION TIME TEMP WIND PRES VSBY WAVE AIR SEA DIR/SP/G HT/PER (UTC) (F) (DEG/KT/KT) (MB) (MI) (FT/S) BOSTON BUOY 2250 59 62 20/ 12/ 14 1009.8F 3/ 5 BUZZARDS BAY 2200 61 30/ 15/ 15 1009.8F NANTUCKET SOUND 2250 61 65 30/ 4/ 6 1009.0F 1/ 3 MASS BAY-STELLWA 2204 58 59 1008.9F 3/ 5 ISLE OF SHOALS 2300 58 30/ 10/ 11 1010.7R S OF BLOCK IS 2243 62 N/A 4/ 7 $$ ......................KEY......................... SKY/WX - SKY CONDITION/PRESENT WEATHER TMP - TEMPERATURE IN FAHRENHEIT DWPT - DEWPOINT IN FAHRENHEIT RH - RELATIVE HUMIDITY IN PERCENT WIND - DIRECTION AND SPEED IN MPH PRES - MEAN SEA LEVEL PRESSURE IN INCHES OF HG WCI - WIND CHILL INDEX VSB - VISIBILITY IN MILES HX - HEAT INDEX TC - TEMPERATURE IN CELSIUS VRB - VARIABLE WIND DIRECTION N/A - NOT AVAILABLE

USA.gov is the U.S. government's official web portal to all federal, state and local government web resources and services.